map of BOY home
Great Circle Mapper logo
BOY - Airport
Location
City:  Bobo/Dioulasso, Burkina Faso
ICAO / IATA:DFOO / BOY

Details
Type:Airport (Aerodrome, Airfield)
Use:Public/Civil, International (customs port of entry)
Latitude:1109'36"N (11.160056)
Longitude:419'51"W (-4.330968)
Datum:WGS 1984
Elevation:1511 ft (461 m)
Variation:3.7W (WMM2010 magnetic declination)
Runways:1
Longest:10826 × 148 ft (3300 × 45 m), paved

Time
Time Zone:UTC+0
Local Time:

Weather
METAR:DFOO 260800Z 00000KT 6000 NSC 26/08 Q1014
TAF:DFOO 260500Z 2606/2706 08008KT 8000 NSC
TEMPO 2606/2609 3000 HZ
TEMPO 2617/2620 4000 HZ

Related Locations
Nearby:
Farthest:RTA: 12307 mi / 19807 km
Elsee, Rotuma Island, FJ

Find:

   beyond  
but within

Other Information
Maps:
NOTAMs:
Links:
Sources:

  
flag of Burkina Faso   

Sectional Chart

Flight Planning
at skyvector.com

Satellite Image

Google Maps Satellite View

 

Copyright © 2004-2014 Karl L. Swartz. All rights reserved.
The Great Circle Mapper name and logo are trademarks of the Great Circle Mapper.
All other trademarks mentioned herein belong to their respective owners.
Please see credits for attibutions and further copyright information.

  Follow gcmap on Facebook Follow gcmap on Twitter

hCard Microformat

Geo Microformat